This is the latest recevied weather packets stored in our database for station/object WD7CGF. If no packets are shown the sender has not sent any weather packets the latest 10 day(s).
| Time | Temp. | Humidity | Pressure | Rain* | Wind** | Luminosity | Snow |
|---|---|---|---|---|---|---|---|
| 1777543096 | 4.44° C | 89% | 1021.5 hPa | 0 mm | - | - | - |
| 1777542504 | 4.44° C | 89% | 1021.5 hPa | 0 mm | - | - | - |
| 1777541895 | 3.89° C | 88% | 1021.6 hPa | 0 mm | - | - | - |
| 1777541304 | 4.44° C | 88% | 1021.6 hPa | 0 mm | - | - | - |
| 1777540095 | 4.44° C | 87% | 1021.8 hPa | 0 mm | - | - | - |
| 1777539505 | 4.44° C | 86% | 1021.6 hPa | 0 mm | - | - | - |
| 1777538906 | 4.44° C | 87% | 1021.6 hPa | 0 mm | - | - | - |
| 1777538310 | 5° C | 87% | 1021.6 hPa | 0 mm | - | - | - |
| 1777537695 | 5° C | 86% | 1021.4 hPa | 0 mm | - | - | - |
| 1777537113 | 5° C | 86% | 1021.4 hPa | 0 mm | - | - | - |
| 1777536497 | 5° C | 85% | 1021.4 hPa | 0 mm | - | - | - |
| 1777535905 | 5.56° C | 84% | 1021.4 hPa | 0 mm | - | - | - |
| 1777535313 | 5.56° C | 83% | 1021.4 hPa | 0 mm | - | - | - |
| 1777534696 | 6.11° C | 82% | 1021.4 hPa | 0 mm | - | - | - |
| 1777534103 | 6.11° C | 82% | 1021.2 hPa | 0 mm | - | - | - |
| 1777533505 | 6.67° C | 82% | 1021.2 hPa | 0 mm | - | - | - |
| 1777532909 | 6.67° C | 81% | 1021.3 hPa | 0 mm | - | - | - |
| 1777532314 | 7.22° C | 81% | 1021.3 hPa | 0 mm | - | - | - |
| 1777531697 | 7.22° C | 81% | 1021.3 hPa | 0 mm | - | - | - |
| 1777531104 | 7.22° C | 80% | 1021.2 hPa | 0 mm | - | - | - |
| 1777530493 | 7.78° C | 80% | 1021.1 hPa | 0 mm | - | - | - |
| 1777529909 | 7.78° C | 80% | 1021.1 hPa | 0 mm | - | - | - |
| 1777529300 | 8.33° C | 79% | 1021.1 hPa | 0 mm | - | - | - |
| 1777528693 | 8.33° C | 78% | 1021 hPa | 0 mm | - | - | - |
| 1777528102 | 8.89° C | 77% | 1021 hPa | 0 mm | - | - | - |
* Rain since midnight (hover to see other rain measurements)
** Current wind speed in m/s (hover to see current wind gust speed)